N2324K KALB-KFRG

Flight info

Callsign N2324K
Flight time N/A
Altitude 4000
Route ALB196009 ATHOS PAWLN1 KFRG
Aircraft BE58/L-SDFGRY/C

Departure

Time N/A
Airport Albany International Airport (KALB)

Arrival

Time 2026-04-30 00:30
Airport Republic Airport (KFRG)
Time Latitude Longitude Altitude Speed Heading
2026-04-30 00:10 40.77372 -73.40056 2016 ft 172 kts 268°
2026-04-30 00:10 40.77431 -73.41576 2006 ft 162 kts 269°
2026-04-30 00:10 40.77481 -73.43032 2005 ft 156 kts 268°
2026-04-30 00:10 40.77526 -73.44455 2002 ft 154 kts 268°
2026-04-30 00:11 40.77573 -73.45862 2004 ft 153 kts 268°
2026-04-30 00:11 40.77619 -73.47262 2003 ft 152 kts 268°
2026-04-30 00:11 40.77665 -73.48621 2011 ft 144 kts 268°
2026-04-30 00:11 40.77711 -73.49925 2008 ft 141 kts 268°
2026-04-30 00:12 40.77787 -73.51202 2000 ft 136 kts 256°
2026-04-30 00:12 40.77237 -73.52048 2005 ft 123 kts 190°
2026-04-30 00:12 40.76504 -73.51663 2010 ft 123 kts 125°
2026-04-30 00:12 40.76534 -73.50550 2014 ft 135 kts 59°
2026-04-30 00:13 40.77150 -73.49609 2024 ft 134 kts 65°
2026-04-30 00:13 40.77593 -73.48518 2022 ft 135 kts 69°
2026-04-30 00:13 40.77576 -73.47407 2011 ft 119 kts 130°
2026-04-30 00:13 40.76952 -73.46764 2015 ft 114 kts 146°
2026-04-30 00:14 40.76312 -73.46154 2011 ft 113 kts 145°
2026-04-30 00:14 40.75771 -73.45616 1957 ft 77 kts 144°
2026-04-30 00:14 40.75389 -73.45064 1666 ft 86 kts 130°
2026-04-30 00:14 40.75045 -73.44476 1255 ft 79 kts 134°
2026-04-30 00:15 40.74774 -73.43817 1292 ft 91 kts 91°
2026-04-30 00:15 40.74978 -73.42988 1642 ft 108 kts 73°
2026-04-30 00:15 40.75323 -73.41924 1869 ft 139 kts 73°
2026-04-30 00:15 40.75631 -73.40718 2351 ft 138 kts 79°
2026-04-30 00:16 40.75894 -73.39467 2798 ft 141 kts 80°
2026-04-30 00:16 40.76111 -73.38153 3028 ft 158 kts 82°
2026-04-30 00:16 40.76355 -73.36719 2701 ft 163 kts 82°
2026-04-30 00:16 40.76581 -73.35268 2399 ft 161 kts 83°
2026-04-30 00:17 40.76816 -73.33842 2160 ft 156 kts 82°
2026-04-30 00:17 40.77036 -73.32465 2029 ft 149 kts 83°
2026-04-30 00:17 40.77239 -73.31126 1911 ft 147 kts 84°
2026-04-30 00:17 40.77371 -73.30269 1925 ft 142 kts 82°
2026-04-30 00:18 40.77799 -73.29141 1965 ft 141 kts 47°
2026-04-30 00:18 40.78707 -73.28674 1957 ft 145 kts
2026-04-30 00:18 40.79730 -73.28745 1914 ft 149 kts 359°
2026-04-30 00:18 40.80768 -73.28774 1927 ft 148 kts
2026-04-30 00:19 40.81796 -73.28788 1929 ft 148 kts
2026-04-30 00:19 40.82819 -73.28796 1960 ft 145 kts
2026-04-30 00:19 40.83830 -73.28810 1991 ft 146 kts 357°
2026-04-30 00:19 40.84853 -73.28901 1978 ft 148 kts 354°
2026-04-30 00:20 40.85742 -73.29486 2028 ft 147 kts 306°
2026-04-30 00:20 40.86307 -73.30636 1996 ft 148 kts 300°
2026-04-30 00:20 40.86851 -73.31815 1870 ft 154 kts 294°
2026-04-30 00:20 40.87389 -73.32988 1959 ft 146 kts 300°
2026-04-30 00:21 40.87945 -73.34133 1950 ft 146 kts 298°
2026-04-30 00:21 40.88461 -73.35278 1984 ft 145 kts 296°
2026-04-30 00:21 40.88979 -73.36387 2028 ft 144 kts 302°
2026-04-30 00:21 40.89206 -73.37594 2030 ft 137 kts 258°
2026-04-30 00:22 40.89115 -73.38850 2092 ft 135 kts 258°
2026-04-30 00:22 40.89051 -73.40062 2202 ft 133 kts 269°
2026-04-30 00:22 40.89018 -73.41289 2210 ft 136 kts 263°
2026-04-30 00:22 40.89006 -73.42529 2203 ft 135 kts 266°
2026-04-30 00:23 40.88973 -73.43776 2088 ft 134 kts 255°
2026-04-30 00:23 40.88614 -73.44828 2099 ft 123 kts 228°
2026-04-30 00:23 40.88144 -73.45783 2069 ft 125 kts 229°
2026-04-30 00:23 40.87671 -73.46740 2083 ft 125 kts 241°
2026-04-30 00:24 40.87199 -73.47656 2097 ft 123 kts 227°
2026-04-30 00:24 40.86691 -73.48595 2042 ft 126 kts 231°
2026-04-30 00:24 40.86208 -73.49522 2062 ft 123 kts 228°
2026-04-30 00:24 40.85706 -73.50459 2062 ft 123 kts 229°
2026-04-30 00:25 40.85199 -73.51384 2045 ft 125 kts 231°
2026-04-30 00:25 40.84711 -73.52321 2093 ft 122 kts 229°
2026-04-30 00:25 40.84185 -73.53182 2077 ft 122 kts 219°
2026-04-30 00:25 40.83450 -73.53704 2041 ft 120 kts 188°
2026-04-30 00:26 40.82895 -73.53741 1995 ft 121 kts 173°
2026-04-30 00:26 40.81950 -73.53073 1973 ft 122 kts 127°
2026-04-30 00:26 40.81517 -73.52139 1977 ft 119 kts 131°
2026-04-30 00:26 40.80849 -73.51598 1982 ft 115 kts 157°
2026-04-30 00:27 40.80112 -73.51156 1978 ft 116 kts 153°
2026-04-30 00:27 40.79505 -73.50435 1894 ft 124 kts 125°
2026-04-30 00:27 40.78860 -73.49680 1737 ft 127 kts 147°
2026-04-30 00:27 40.78147 -73.48962 1556 ft 130 kts 140°
2026-04-30 00:28 40.77513 -73.48122 1388 ft 131 kts 135°
2026-04-30 00:28 40.76903 -73.47225 1211 ft 131 kts 132°
2026-04-30 00:28 40.76317 -73.46316 1021 ft 130 kts 134°
2026-04-30 00:28 40.75720 -73.45459 836 ft 124 kts 134°
2026-04-30 00:29 40.75133 -73.44597 661 ft 128 kts 134°
2026-04-30 00:29 40.74569 -73.43782 500 ft 112 kts 135°
2026-04-30 00:29 40.74087 -73.43070 353 ft 100 kts 135°
2026-04-30 00:29 40.73633 -73.42423 202 ft 94 kts 136°
2026-04-30 00:30 40.73196 -73.41783 86 ft 82 kts 136°
2026-04-30 00:30 40.72944 -73.41424 75 ft 19 kts 145°
2026-04-30 00:30 40.72838 -73.41282 74 ft 28 kts 127°
2026-04-30 00:30 40.72731 -73.41165 78 ft 9 kts 218°
2026-04-30 00:31 40.72712 -73.41235 81 ft 7 kts 270°
2026-04-30 00:31 40.72714 -73.41279 79 ft 0 kts 274°
2026-04-30 00:31 40.72718 -73.41339 79 ft 10 kts 274°
2026-04-30 00:32 40.72721 -73.41433 80 ft 12 kts 272°
2026-04-30 00:32 40.72699 -73.41538 75 ft 13 kts 205°
2026-04-30 00:32 40.72600 -73.41542 75 ft 14 kts 179°
2026-04-30 00:32 40.72498 -73.41540 74 ft 15 kts 178°
2026-04-30 00:33 40.72396 -73.41538 71 ft 16 kts 180°
2026-04-30 00:33 40.72351 -73.41618 68 ft 12 kts 287°
2026-04-30 00:33 40.72374 -73.41701 65 ft 0 kts 288°
2026-04-30 00:34 40.72384 -73.41735 69 ft 14 kts 291°
2026-04-30 00:34 40.72421 -73.41843 69 ft 10 kts 50°
2026-04-30 00:34 40.72422 -73.41817 69 ft 0 kts 94°